Lynchburg, VA

7:06 PM EST on November 15, 2019 (GMT -0500)
Lynchburg Regional-Glenn

Weather History for KLYH - October, 2019

Change the Weather History Date:

Monday, October 21, 2019

  Actual Average Record
Temperature  
Mean Temperature 59 °F 55 °F  
Max Temperature 69 °F 67 °F 85 °F (1947)
Min Temperature 48 °F 42 °F 23 °F (1952)
Degree Days  
Heating Degree Days 6 11  
Month to date heating degree days 101 165  
Since 1 July heating degree days 106 226  
Cooling Degree Days 0 0  
Month to date cooling degree days 60 11  
Year to date cooling degree days 1574 1027  
Growing Degree Days 8 (Base 50)    
Moisture  
Dew Point 53 °F    
Average Humidity 79    
Maximum Humidity 100    
Minimum Humidity 57    
Precipitation  
Precipitation 0.00 in 0.11 in 2.41 in (1893)
Month to date precipitation 3.37 2.08  
Year to date precipitation 31.12 33.89  
Snow  
Snow 0.00 in - - ()
Month to date snowfall 0.0  
Since 1 July snowfall 0.0  
Since 1 September snowfall 0.0  
Snow Depth 0.00 in    
Sea Level Pressure  
Sea Level Pressure 30.04 in    
Wind  
Wind Speed 3 mph (ESE)    
Max Wind Speed 9 mph    
Max Gust Speed 12 mph    
Visibility 8 miles    
Events Fog    
T = Trace of Precipitation, MM = Missing Value Source: NWS Daily Summary

Daily Weather History Graph

Daily Weather History Graph

Search for Another Location

Airport or City:

Astronomy

Oct. 21, 2019 Rise Set
Actual Time 7:30 AM EDT 6:32 PM EDT
Civil Twilight 7:03 AM EDT 6:58 PM EDT
Nautical Twilight 6:33 AM EDT 7:28 PM EDT
Astronomical Twilight 6:03 AM EDT 7:59 PM EDT
Moon No Moon Rise 2:42 PM EDT (10/21)
Length of Visible Light 11h 54m
Length of Day
11h 01m
Waning Gibbous, 48% of the Moon is Illuminated
Oct 21
Waning Gibbous
Oct 27
New
Nov 4
First Quarter
Nov 12
Full
Nov 19
Last Quarter

Hourly Weather History & Observations

Time (EDT) Temp. Dew Point Humidity Pressure Visibility Wind Dir Wind Speed Gust Speed Precip Events Conditions
12:05 AM 51.1 °F 51.1 °F 100% 30.00 in 1.8 mi Calm Calm - N/A   Clear
12:10 AM 51.1 °F 51.1 °F 100% 30.00 in 0.8 mi Calm Calm - N/A   Clear
12:19 AM 52.0 °F 51.1 °F 97% 30.00 in 1.5 mi Calm Calm - N/A   Clear
12:54 AM 53.1 °F 52.0 °F 96% 29.99 in 9.0 mi North 4.6 mph - N/A   Clear
1:54 AM 52.0 °F 51.1 °F 97% 29.99 in 10.0 mi Calm Calm - N/A   Clear
2:17 AM 50.0 °F 50.0 °F 100% 30.01 in 1.8 mi Calm Calm - N/A   Clear
2:25 AM 51.1 °F 51.1 °F 100% 30.01 in 4.0 mi NNW 4.6 mph - N/A   Clear
2:54 AM 50.0 °F 50.0 °F 100% 30.00 in 1.5 mi Calm Calm - N/A   Clear
2:57 AM 48.9 °F 48.9 °F 100% 30.01 in 0.8 mi Calm Calm - N/A   Clear
3:07 AM 51.1 °F 51.1 °F 100% 30.01 in 1.5 mi Calm Calm - N/A   Clear
3:23 AM 51.1 °F 51.1 °F 100% 30.01 in 4.0 mi NW 3.5 mph - N/A   Clear
3:54 AM 50.0 °F 50.0 °F 100% 30.00 in 2.5 mi Calm Calm - N/A   Clear
4:09 AM 52.0 °F 51.1 °F 97% 30.01 in 9.0 mi Calm Calm - N/A   Clear
4:54 AM 52.0 °F 51.1 °F 97% 30.01 in 10.0 mi North 3.5 mph - N/A   Clear
5:54 AM 52.0 °F 51.1 °F 97% 30.02 in 10.0 mi Variable 4.6 mph - N/A   Clear
6:54 AM 52.0 °F 51.1 °F 97% 30.04 in 10.0 mi Calm Calm - N/A   Clear
7:13 AM 50.0 °F 48.9 °F 96% 30.06 in 1.8 mi Calm Calm - N/A   Clear
7:17 AM 48.9 °F 48.9 °F 100% 30.06 in 0.8 mi Calm Calm - N/A   Clear
7:24 AM 48.9 °F 48.9 °F 100% 30.07 in 10.0 mi Calm Calm - N/A Fog Shallow Fog
7:54 AM 48.0 °F 48.0 °F 100% 30.06 in 10.0 mi Calm Calm - N/A Fog Shallow Fog
8:54 AM 52.0 °F 52.0 °F 100% 30.09 in 10.0 mi Calm Calm - N/A   Clear
10:54 AM 61.0 °F 54.0 °F 78% 30.09 in 10.0 mi NE 5.8 mph - N/A   Clear
11:54 AM 66.0 °F 55.0 °F 68% 30.10 in 10.0 mi Calm Calm - N/A   Clear
12:54 PM 66.0 °F 53.1 °F 63% 30.09 in 10.0 mi East 5.8 mph - N/A   Clear
1:15 PM 66.0 °F 53.1 °F 63% 30.10 in 10.0 mi Variable 4.6 mph - N/A   Mostly Cloudy
1:54 PM 66.0 °F 54.0 °F 65% 30.07 in 10.0 mi SSE 3.5 mph - N/A   Mostly Cloudy
2:54 PM 66.9 °F 54.0 °F 63% 30.05 in 10.0 mi Variable 3.5 mph - N/A   Mostly Cloudy
3:54 PM 69.1 °F 54.0 °F 58% 30.04 in 10.0 mi Calm Calm - N/A   Mostly Cloudy
4:54 PM 66.9 °F 55.0 °F 66% 30.03 in 10.0 mi Variable 5.8 mph - N/A   Overcast
5:54 PM 64.9 °F 55.0 °F 70% 30.04 in 10.0 mi South 3.5 mph - N/A   Overcast
6:21 PM 64.0 °F 55.0 °F 73% 30.05 in 10.0 mi Calm Calm - N/A   Overcast
6:54 PM 64.0 °F 55.9 °F 75% 30.04 in 10.0 mi SE 3.5 mph - N/A   Overcast
7:20 PM 64.0 °F 55.9 °F 75% 30.06 in 10.0 mi Calm Calm - N/A   Overcast
7:54 PM 62.1 °F 57.0 °F 84% 30.06 in 10.0 mi Calm Calm - N/A   Overcast
8:54 PM 62.1 °F 55.9 °F 80% 30.05 in 10.0 mi SE 5.8 mph - N/A   Overcast
9:54 PM 59.0 °F 55.9 °F 90% 30.06 in 10.0 mi SE 3.5 mph - N/A   Mostly Cloudy
10:13 PM 59.0 °F 55.9 °F 90% 30.08 in 10.0 mi SE 4.6 mph - N/A   Overcast
10:54 PM 57.0 °F 55.0 °F 93% 30.06 in 10.0 mi Calm Calm - N/A   Mostly Cloudy
11:54 PM 57.0 °F 55.0 °F 93% 30.05 in 10.0 mi ESE 6.9 mph - N/A   Overcast